Location: Amsterdam
(30.7274°N, 84.4357°W)
Time: 11:07:33
(UTC+00:00)

O/OREOS (USA 219) - Visible Passes

Search period start: 15 March 2026 00:00
Search period end: 25 March 2026 00:00
Orbit: 576 x 599 km, 72.0° (Epoch: 14 March)

Date Brightness Start Highest point End Pass type
(mag) Time Alt. Az. Time Alt. Az. Time Alt. Az.
15 Mar ? 01:10:05 10° NNW 01:14:17 53° WSW 01:18:26 10° S visible
16 Mar ? 01:17:47 10° NW 01:21:32 29° WSW 01:25:14 10° SSW visible
17 Mar ? 01:25:56 10° WNW 01:28:44 17° W 01:31:30 10° SW visible
20 Mar ? 00:08:28 10° NNW 00:12:37 49° WSW 00:16:43 10° S visible
21 Mar ? 00:16:12 10° NW 00:19:50 27° WSW 00:23:26 10° SSW visible
22 Mar ? 00:24:24 10° WNW 00:26:59 16° W 00:29:33 10° SW visible
